Weather History for Anchorage Merrill, AK

Change the Weather History Date:

Thursday, February 2, 2012

  Actual Average Record
Temperature  
Mean Temperature 30 °F -  
Max Temperature 41 °F 23 °F 23 °F (2014)
Min Temperature 19 °F 11 °F 9 °F (2014)
Degree Days  
Heating Degree Days 35    
Moisture  
Dew Point 25 °F    
Average Humidity 78    
Maximum Humidity 89    
Minimum Humidity 47    
Precipitation  
Precipitation 0.01 in - - ()
Snow  
Snow 0.00 in - - ()
Snow Depth 18.00 in    
Sea Level Pressure  
Sea Level Pressure 29.04 in    
Wind  
Wind Speed 6 mph (South)    
Max Wind Speed 20 mph    
Max Gust Speed 30 mph    
Visibility 9 miles    
Events Rain    
Averages and records for this station are not official NWS values.
T = Trace of Precipitation, MM = Missing Value Source: NWS Daily Summary

Daily Weather History Graph

Daily Weather History Graph

Search for Another Location

Airport:

Trip Planner

Search our weather history database for the weather conditions in past years. The results will help you decide how hot, cold, wet, or windy it might be!

Date:

Astronomy

Feb. 02, 2012 Rise Set
Actual Time 9:18 AM AKST 5:09 PM AKST
Civil Twilight 8:28 AM AKST 5:58 PM AKST
Nautical Twilight 7:36 AM AKST 6:51 PM AKST
Astronomical Twilight 6:45 AM AKST 7:41 PM AKST
Moon 11:43 AM AKST (2/2) 5:53 AM AKST (2/2)
Length of Visible Light 9h 29m
Length of Day
7h 50m
Waxing Gibbous, 75% of the Moon is Illuminated
Feb 2
Waxing Gibbous
Feb 7
Full
Feb 14
Last Quarter
Feb 21
New
Feb 29
First Quarter

Hourly Weather History & Observations

Time (AKST) Temp. Windchill Dew Point Humidity Pressure Visibility Wind Dir Wind Speed Gust Speed Precip Events Conditions
12:53 AM 34.0 °F 26.0 °F 28.0 °F 79% 28.64 in 10.0 mi SW 10.4 mph - N/A   Overcast
1:53 AM 30.0 °F 26.5 °F 27.0 °F 88% 28.69 in 10.0 mi Variable 3.5 mph - N/A   Overcast
2:53 AM 28.0 °F - 26.1 °F 92% 28.74 in 10.0 mi Calm Calm - N/A   Overcast
3:53 AM 28.0 °F 22.8 °F 24.1 °F 85% 28.78 in 10.0 mi West 4.6 mph - N/A   Mostly Cloudy
4:53 AM 30.9 °F 27.5 °F 25.0 °F 79% 28.82 in 10.0 mi NW 3.5 mph - N/A   Mostly Cloudy
5:53 AM 36.0 °F 33.3 °F 23.0 °F 59% 28.86 in 10.0 mi Variable 3.5 mph - N/A   Mostly Cloudy
6:53 AM 41.0 °F 33.1 °F 21.9 °F 47% 28.92 in 10.0 mi SSE 15.0 mph 23.0 mph N/A   Mostly Cloudy
7:53 AM 39.9 °F 32.1 °F 21.0 °F 47% 28.97 in 10.0 mi SE 13.8 mph - N/A   Partly Cloudy
8:53 AM 35.1 °F 30.1 °F 27.0 °F 72% 28.98 in 10.0 mi ENE 5.8 mph - N/A   Mostly Cloudy
9:08 AM 30.2 °F 26.7 °F 24.8 °F 80% 29.01 in 5.0 mi South 3.5 mph - N/A   Haze
9:09 AM 30.2 °F 24.3 °F 24.8 °F 80% 29.02 in 3.0 mi South 5.8 mph - N/A   Haze
9:15 AM 37.4 °F 27.2 °F 28.4 °F 70% 29.03 in 1.0 mi SSE 19.6 mph 29.9 mph 0.00 in Rain Light Rain
9:50 AM 35.6 °F 31.7 °F 30.2 °F 81% 29.04 in 4.0 mi South 4.6 mph 16.1 mph 0.01 in Rain Light Rain
9:53 AM 35.1 °F 31.0 °F 30.9 °F 85% 29.05 in 5.0 mi SSE 4.6 mph - 0.01 in   Overcast
10:04 AM 35.6 °F 31.7 °F 30.2 °F 81% 29.04 in 10.0 mi NE 4.6 mph - N/A   Mostly Cloudy
10:53 AM 34.0 °F 26.6 °F 30.9 °F 89% 29.06 in 10.0 mi NE 9.2 mph - N/A   Mostly Cloudy
11:53 AM 33.1 °F 26.1 °F 28.9 °F 85% 29.08 in 10.0 mi WSW 8.1 mph - N/A   Overcast
12:53 PM 34.0 °F - 28.0 °F 79% 29.11 in 10.0 mi Calm Calm - N/A   Overcast
1:53 PM 36.0 °F - 27.0 °F 70% 29.13 in 10.0 mi Calm Calm - N/A   Overcast
2:53 PM 36.0 °F - 27.0 °F 70% 29.14 in 10.0 mi Calm Calm - N/A   Overcast
3:53 PM 34.0 °F 28.0 °F 27.0 °F 75% 29.15 in 10.0 mi West 6.9 mph - N/A   Mostly Cloudy
4:53 PM 30.9 °F - 26.1 °F 82% 29.18 in 10.0 mi Calm Calm - N/A   Mostly Cloudy
5:53 PM 30.0 °F - 25.0 °F 82% 29.19 in 10.0 mi Calm Calm - N/A   Mostly Cloudy
6:53 PM 25.0 °F 18.1 °F 21.0 °F 85% 29.19 in 10.0 mi WSW 5.8 mph - N/A   Scattered Clouds
7:53 PM 27.0 °F - 23.0 °F 85% 29.20 in 10.0 mi Calm Calm - N/A   Mostly Cloudy
8:53 PM 28.9 °F - 24.1 °F 82% 29.21 in 10.0 mi Calm Calm - N/A   Partly Cloudy
9:53 PM 19.9 °F - 17.1 °F 89% 29.20 in 10.0 mi Calm Calm - N/A   Scattered Clouds
10:53 PM 24.1 °F - 21.0 °F 88% 29.20 in 10.0 mi Calm Calm - N/A   Scattered Clouds
11:53 PM 23.0 °F - 19.9 °F 88% 29.20 in 10.0 mi Calm Calm - N/A   Partly Cloudy